Погода в Вельске

Погода в Вельске : погода сейчас, прогноз погоды и архив. Всё, что Вы хотите узнать о погоде в Вельске!

Поиск расширенной информации на нашем сайте:

Другие новости

Новости СМИ2

Главная страница сайта

Новости сайта

02.10.2013

Напоминаем, что на нашем новом сайте вы можете получить высокодетализированные прогнозы погоды по пунктам России, СНГ и мира (включающие важные для авиации метеовеличины, такие как направление и скорость ветра, видимость, явления погоды, количество и форма облачности, нижняя и верхняя граница облачности), а также ознакомиться с разнообразными материалами по авиационной метеорологии и подборкой полезных ссылок на эту тему.

Сайт Метеоцентр.Азия посвящён разработке технологий оптимизации авиаметеорологического обслуживания, включая проектирование и перспективное создание нескольких автоматизированных авиаметеорологических систем:
- система выпуска высокодетальных прогностических карт явлений погоды для нижнего воздушного пространства по России и ближнему зарубежью;
- система верификации прогнозов TAF (выпускаемых синоптиками официальных АМСГ РФ и ближнего зарубежья) и AUTOTAF (выпускаемых сайтом Метеоцентр.Азия) - выявление ошибок, онлайн-сопоставление с фактической погодой METAR, автоматическое внесение коррективов в прогнозы при резком отклонении фактической погоды от прогноза, подсчёт оправдываемости прогнозов по элементам и в целом;
- система обработки, анализа и отображения авиаметеорологической информации для применения провайдерами метеорологической информации.


Погода в Вельске - сегодня

Время (UTC), дата Ветер
(°,м/с) 
Видим.   Явления Облачность Т
(°С)
Тd
(°С)
f(%) Тe
(°С)
Pmin
(гПа)
dP
(гПа)
Po
(мм)
O2
(г/м3)
Тmin Tmax R s Состояние
почвы
09 22.03.17 180 (Ю) 10 км  слаб. ливневой дождь  10/10 480 м кучево-дожд. 
[Cb cap]
+2.5 -0.1 83 1012.9  751  300           
12 22.03.17 180 (Ю) 20000 м  {ливн. осадки}  10/10 570 м 
[Sc]
+3.6 +0.2 78 +2  1012.2  -0.7  751  299           
15 22.03.17 190 (Ю) 20000 м    10/10 660 м 
[Sc]
+3.7 +0.2 78 +2  1011.8  -0.4  751  298    +3.8  0.0     
18 22.03.17 180 (Ю) 20000 м    9/9 720 м 
[Sc]
+3.1 +0.2 81 +3  1010.7  -1.2  750  299           
21 22.03.17 190 (Ю) 10 км  слаб. дождь  10/10 400 м 
[Frnb|Ns]
+3.1 +1.6 90 +2  1008.9  -1.7  748  298           
00 23.03.17 220 (ЮЗ) 20000 м  в посл. час дождь  10/10 420 м 
[Sc]
+1.2 -0.3 90 +1  1009.7  0.6  749  300           
03 23.03.17 250 (З) 20000 м    9/9 450 м 
[Sc]
+0.7 -1.3 86 -1  1010.2  0.5  749  301  +0.6    31  мокрый или
старый снег
50-90% 
06 23.03.17 220 (ЮЗ) 20000 м    10/10 570 м 
[Sc]
+1.2 -1.3 83 +1  1010.7  0.5  750  301  +0.6         
09 23.03.17 220 (ЮЗ) 20000 м  в посл. час ливневой снег  9/6 300 м кучево-дожд., средняя 
[Cb cap|Ac trans]
+2.8 -0.1 81 +1  1010.6  0.1  750  299           
12 23.03.17 250 (З) 10 км  слаб. ливневой дождь  9/5 300 м кучево-дожд., средняя 
[Cb cap|Ac trans]
+2.7 +0.3 84 +2  1010.7  0.1  750  299           
15 23.03.17 210 (ЮЗ) 20000 м  {ливн. осадки}  8/3 600 м средняя 
[Sc|Ac trans]
+3.4 -0.7 74 +3  1011.4  0.7  750  299    +3.8     
18 23.03.17 200 (Ю) 20000 м  {ливн. осадки}  ясно 
+1.7 -2.7 73 +1  1011.8  0.4  750  301           
21 23.03.17 230 (ЮЗ) 20000 м    ясно 
+0.5 -2.4 81 1012.7  0.8  751  302           
00 24.03.17 230 (ЮЗ) 20000 м    ясно 
-0.7 -3.1 84 -2  1012.8  0.1  751  304           
03 24.03.17 250 (З) 20000 м    6/0 верхняя 
[Ci fib]
-1.6 -3.6 86 -3  1013  0.1  751  305  -1.6      30  мокрый или
старый снег
50-90% 
06 24.03.17 220 (ЮЗ) 20000 м    8/0 средняя, верхняя 
[Ac trans|Ci fib]
-0.3 -3.4 80 -2  1012.4  -0.4  751  303  -1.6         
09 24.03.17 220 (ЮЗ) 20000 м    5/5 600 м 
[Cu med, cong]
+4.1 -6.2 47 +3  1010.2  -2  749  298           
12 24.03.17 320 (СЗ) 1{10}  20000 м    8/6 630 м кучево-дожд., средняя 
[Cb cap|Ac trans]
+3.2 -4 59 +4  1009.1  -1.2  748  299           
15 24.03.17 280 (З) 20000 м  {ливн. осадки}  4/4 600 м 
[Sc diur, vesp]
+1.7 -7.1 52 +1  1008.8  -0.3  748  300    +4.8  0.0     
18 24.03.17 260 (З) 20000 м  {ливн. осадки}  ясно 
-1.6 -6.5 69 -3  1009.5  0.6  749  304           
21 24.03.17 280 (З) 20000 м    ясно 
-3.8 -6.2 83 -3  1008.9  -0.7  748  306           
00 25.03.17 280 (З) 20000 м    ясно 
-4.9 -6.4 89 -4  1008.4  -0.6  748  307           
03 25.03.17 тихо ()   20000 м    4/0 верхняя 
[Ci fib]
-7.3 -8.7 90 -7  1008  -0.5  747  310  -7.3      30  мокрый или
старый снег
50-90% 
06 25.03.17 тихо ()   20000 м  в посл. час ливневой снег  8/3 300 м средняя, верхняя 
[Sc|Ac trans|Ci fib]
-2.2 -4.5 84 -2  1007.7  -0.1  747  304  -7.3         
09 25.03.17 300 (СЗ) 20000 м  слаб. ливневой снег  9/8 840 м кучево-дожд., средняя 
[Cb cap|Ac trans]
+1.2 -3.5 71 +2  1007.8  0.3  747  300           
Время (UTC), дата Ветер
(°,м/с) 
Видим.   Явления Облачность Т
(°С)
Тd
(°С)
f(%) Тe
(°С)
Pmin
(гПа)
dP
(гПа)
Po
(мм)
O2
(г/м3)
Тmin Tmax R s Состояние
почвы

Для получения пояснительной информации подведите курсор к названию столбца.

ПОГОДА в Вельске - архив

Всё, что Вы хотите узнать о погоде в Вельске - удобно и подробно!

Выберите нужную дату (начиная с 1 января 2015* года) и нажмите кнопку "Найти".
Будут отображены архивные сводки погоды по пункту Вельск, начиная с указанной даты.


Отображать данные в формате CSV (для использования в таблицах Excel)


Внимание! Наш архив погоды предназначен исключительно для личного некоммерческого использования в познавательных целях. Если Вам необходимы официальные справки о состоянии погоды (для производственных, юридических, коммерческих и т.п. целей), обращайтесь в органы Росгидромета.

*Примечание: данная дата относится к архиву по метеостанциям СССР (Россия, СНГ, Балтия).
Архив по метеостанциям Зарубежной Европы и Азии (кроме Китая) хранится 10 дней, по другим регионам земного шара (Китай, Африка, Америка, Австралия, Океания) - 1 день.

Вельск - район местоположения метеостанции


Название, широта, долгота, высота метеостанции:
Вельск 61.1°ш. 42.1°д. 91 м над ур. моря [Российская Федерация]

Дополнительная информация

В oтличие oт бoльшинства пoгoдных сайтoв мы публикуем пoдрoбную метеoинфoрмацию в детальнoм прoфессиoнальнoм фoрмате.

Характеристики температуры и влажнoсти вoздуха измеряются на высoте 2 м в тени вдали oт зданий и деревьев.
Скoрoсть ветра измеряется на высoте 10 м (на урoвне рoста челoвека скoрoсть ветра ниже в 1.5-2 раза). Если метеoстанция нахoдится в гoрoде или в лесу, тo скoрoсть ветра занижена на 2-4 м/с пo сравнению с oткрытым местoм. Скoрoсть ветра над акватoриями крупных рек и oзёр, а также на вершинах хoлмoв на 2-5 м/с выше, чем в oбычных услoвиях.
Атмoсфернoе давление в разных тoчках местнoсти мoжет значительнo oтличаться oт давления на метеoстанции, в зависимoсти oт услoвий рельефа (при пoдъёме на 10 м давление пoнижается примернo на 1 мм рт.ст.).